Regional Weather Roundup
Issued by NWS

Home | Current Version | Previous Version | Text Only | Print | Product List | Glossary Off
Versions: 1 2 3 4 5 6 7 8 9 10 11 12 13 14 15 16 17 18 19 20 21 22 23 24 25 26 27 28 29 30 31 32 33 34 35 36 37 38 39 40 41 42 43 44 45 46 47 48 49 50

000
ASUS43 KDTX 251610
RWRMI
MICHIGAN HOURLY REGIONAL WEATHER ROUNDUP
NATIONAL WEATHER SERVICE DETROIT/PONTIAC MI
1200 PM EDT FRI JUL 25 2014

NOTE: "FAIR" INDICATES FEW OR NO CLOUDS BELOW 12,000 FEET WITH NO
SIGNIFICANT WEATHER AND/OR OBSTRUCTION TO VISIBILITY.

MIZ047>049-052>055-059>063-066>070-074>076-081>083-251700-
SOUTHEAST LOWER MICHIGAN

CITY           SKY/WX    TMP DP  RH WIND       PRES   REMARKS
ADRIAN         MOSUNNY   72  53  51 SW10      30.08F
ALMA           MOSUNNY   70  48  45 SW5       30.04F
ANN ARBOR      PTSUNNY   74  53  48 W10       30.06F
BAD AXE        PTSUNNY   73  50  45 SW13G18   30.04F
DETROIT CITY   MOSUNNY   75  51  43 SW13      30.06F
DETROIT        PTSUNNY   74  53  48 SW14      30.07F
FLINT          PTSUNNY   74  53  48 W13       30.05F
GROSSE ILE     PTSUNNY   73  55  53 S12       30.06F
HILLSDALE      PTSUNNY   71  54  53 W8        30.08S
HOWELL         PTSUNNY   71  51  49 SW8       30.05F

CITY           SKY/WX    TMP DP  RH WIND       PRES   REMARKS
JACKSON        PTSUNNY   72  54  53 SW12      30.06F
LAMBERTVILLE   MOSUNNY   73  52  46 SW8       30.08F
LANSING        MOSUNNY   72  53  51 SW6       30.05F
LAPEER         NOT AVBL
MASON          PTSUNNY   71  54  53 W7        30.06F
MONROE         MOSUNNY   73  52  46 SW12      30.06F
MT. CLEMENS    PTSUNNY   74  53  46 W7        30.05F
PONTIAC        PTSUNNY   73  51  46 SW14      30.06F
PORT HOPE        N/A     72  51  47 SW9G23    30.01F
PORT HURON     PTSUNNY   72  55  56 SW9G16    30.06S
TRI CITIES     SUNNY     72  52  49 W12       30.04F
YPSILANTI      SUNNY     77  52  41 SW13      30.07F
$$
MIZ043>046-050>051-056>058-064>065-071>073-077>080-251700-
SOUTHWEST LOWER MICHIGAN

CITY           SKY/WX    TMP DP  RH WIND       PRES   REMARKS
BATTLE CREEK   MOSUNNY   72  53  51 W7        30.06F
BENTON HARBOR  CLOUDY    70  57  63 SW6       30.04F
BIG RAPIDS     MOSUNNY   72  53  51 SW8       30.00F
COLDWATER      PTSUNNY   74  56  53 SW12      30.07S
HOLLAND        PTSUNNY   73  56  54 SW10      30.04F
GRAND RAPIDS   PTSUNNY   72  56  57 S7        30.03F
KALAMAZOO      MOSUNNY   72  54  53 VRB7      30.06S
MARSHALL       MOSUNNY   72  56  58 SW6       30.06S
MUSKEGON       CLOUDY    71  56  58 S10       30.02F
$$
MIZ016>042-251700-
NORTHERN LOWER MICHIGAN

CITY           SKY/WX    TMP DP  RH WIND       PRES   REMARKS
ALPENA         SUNNY     73  52  47 W8        29.97F
BEAVER ISLAND  MOSUNNY   69  56  63 S10       29.93F
BELLAIRE       PTSUNNY   72  53  51 W7        29.95F
CADILLAC       MOSUNNY   70  55  60 SW8       29.99F
CHARLEVOIX     PTSUNNY   71  55  58 SW12      29.97F
FRANKFORT      PTSUNNY   71  53  53 SW12G17   29.96F
GAYLORD        PTSUNNY   68  51  54 SW9       29.98F
GRAYLING       PTSUNNY   71  52  50 S7        29.99F
HARBOR SPRINGS SUNNY     70  54  56 SW5       29.95F
HOUGHTON LAKE  CLOUDY    67  51  56 SW9       30.01F
MANISTEE       PTSUNNY   72  55  56 SW9       29.98F
OSCODA         MOSUNNY   76  47  35 SW16      29.98F
PELLSTON       SUNNY     72  55  55 SW9       29.95F
TRAVERSE CITY  CLOUDY    73  52  47 SW9G17    29.94F
$$
MIZ007>008-015-251700-
EASTERN UPPER MICHIGAN

CITY           SKY/WX    TMP DP  RH WIND       PRES   REMARKS
KINROSS        SUNNY     72  57  60 SW9G17    29.93F
MACKINAC ISLAN SUNNY     68  54  60 W8        29.94S
NEWBERRY       SUNNY     71  57  60 SW8       29.91F
S. S. MARIE    MOSUNNY   74  55  51 W7        29.91F
$$
MIZ004>006-011>014-085-251700-
CENTRAL UPPER MICHIGAN

CITY           SKY/WX    TMP DP  RH WIND       PRES   REMARKS
MANISTIQUE     SUNNY     65  56  72 S13G18    29.91F
ESCANABA       MOSUNNY   70  57  64 S8        29.89F
MENOMINEE      CLOUDY    72  57  60 SW10G16   29.90S
SAWYER-GWINN   SUNNY     72  59  64 W10       29.89
$$
MIZ001>003-009>011-084-251700-
WESTERN UPPER MICHIGAN

CITY           SKY/WX    TMP DP  RH WIND       PRES   REMARKS
IRON MOUNTAIN  PTSUNNY   73  57  57 SW9       29.89S
HOUGHTON       PTSUNNY   73  60  63 S6        29.84F
COPPER HARBOR    N/A     69  58  67 N3        29.83F
$$

ABBREVIATIONS USED IN REMARKS
   TC - TEMPERATURE IN CELSIUS
  WCI - WIND CHILL INDEX
   HX - HEAT INDEX
  VSB - VISIBILITY



USA.gov is the U.S. government's official web portal to all federal, state and local government web resources and services.